Time,TemperatureF,DewpointF,PressureIn,WindDirection,WindDirectionDegrees,WindSpeedMPH,WindSpeedGustMPH,Humidity,HourlyPrecipIn,Conditions,Clouds,dailyrainin,SolarRadiationWatts/m^2,SoftwareType,DateUTC
2013-09-16 00:05:00,61.0,53.0,-100.00,SSW,213,10.0,15.0,75,0.00,,,0.00,0.000000,,2013-09-16 04:05:00,
2013-09-16 00:43:00,61.0,52.0,-100.00,SW,217,8.0,17.0,72,0.00,,,0.00,0.000000,,2013-09-16 04:43:00,
2013-09-16 00:54:00,61.0,52.0,-100.00,SW,217,8.0,17.0,72,0.00,,,0.00,0.000000,,2013-09-16 04:54:00,
2013-09-16 01:04:00,61.0,52.0,-100.00,SW,217,8.0,17.0,72,0.00,,,0.00,0.000000,,2013-09-16 05:04:00,
2013-09-16 01:44:00,61.0,53.0,-100.00,SW,218,7.0,15.0,74,0.00,,,0.00,0.000000,,2013-09-16 05:44:00,
2013-09-16 01:53:00,61.0,53.0,-100.00,SW,218,7.0,15.0,74,0.00,,,0.00,0.000000,,2013-09-16 05:53:00,
2013-09-16 02:03:00,61.0,53.0,-100.00,SW,218,7.0,15.0,74,0.00,,,0.00,0.000000,,2013-09-16 06:03:00,
2013-09-16 02:43:00,60.0,54.0,-100.00,SSW,208,5.0,9.0,80,0.00,,,0.00,0.000000,,2013-09-16 06:43:00,
2013-09-16 02:52:00,60.0,54.0,-100.00,SSW,208,5.0,9.0,80,0.00,,,0.00,0.000000,,2013-09-16 06:52:00,
2013-09-16 03:02:00,60.0,54.0,-100.00,SSW,208,5.0,9.0,80,0.00,,,0.00,0.000000,,2013-09-16 07:02:00,
2013-09-16 03:43:00,59.0,54.0,-100.00,SSW,204,3.0,9.0,85,0.00,,,0.00,0.000000,,2013-09-16 07:43:00,
2013-09-16 03:52:00,59.0,54.0,-100.00,SSW,204,3.0,9.0,85,0.00,,,0.00,0.000000,,2013-09-16 07:52:00,
2013-09-16 04:02:00,59.0,54.0,-100.00,SSW,204,3.0,9.0,85,0.00,,,0.00,0.000000,,2013-09-16 08:02:00,
2013-09-16 04:42:00,58.0,56.0,-100.00,NE,50,2.0,4.0,93,0.00,,,0.00,0.000000,,2013-09-16 08:42:00,
2013-09-16 04:52:00,58.0,56.0,-100.00,NE,50,2.0,4.0,93,0.00,,,0.00,0.000000,,2013-09-16 08:52:00,
2013-09-16 05:02:00,58.0,56.0,-100.00,NE,50,2.0,4.0,93,0.00,,,0.00,0.000000,,2013-09-16 09:02:00,
2013-09-16 05:43:00,57.0,55.0,-100.00,NE,40,4.0,6.0,93,0.00,,,0.00,0.000000,,2013-09-16 09:43:00,
2013-09-16 05:53:00,57.0,55.0,-100.00,NE,40,4.0,6.0,93,0.00,,,0.00,0.000000,,2013-09-16 09:53:00,
2013-09-16 06:03:00,57.0,55.0,-100.00,NE,40,4.0,6.0,93,0.00,,,0.00,0.000000,,2013-09-16 10:03:00,
2013-09-16 06:42:00,54.0,54.0,-100.00,NNE,24,6.0,10.0,100,0.06,,,0.06,0.000000,,2013-09-16 10:42:00,
2013-09-16 06:53:00,54.0,54.0,-100.00,NNE,24,6.0,10.0,100,0.06,,,0.06,0.000000,,2013-09-16 10:53:00,
2013-09-16 07:02:00,54.0,54.0,-100.00,NNE,24,6.0,10.0,100,0.06,,,0.06,0.000000,,2013-09-16 11:02:00,
2013-09-16 07:42:00,53.0,53.0,-100.00,NNE,28,5.0,9.0,100,0.04,,,0.10,1.000000,,2013-09-16 11:42:00,
2013-09-16 07:52:00,53.0,53.0,-100.00,NNE,28,5.0,9.0,100,0.04,,,0.10,1.000000,,2013-09-16 11:52:00,
2013-09-16 08:01:00,53.0,53.0,-100.00,NNE,28,5.0,9.0,100,0.04,,,0.10,1.000000,,2013-09-16 12:01:00,
2013-09-16 08:42:00,53.0,53.0,-100.00,NNE,20,5.0,10.0,100,0.02,,,0.12,13.000000,,2013-09-16 12:42:00,
2013-09-16 08:52:00,53.0,53.0,-100.00,NNE,20,5.0,10.0,100,0.02,,,0.12,13.000000,,2013-09-16 12:52:00,
2013-09-16 09:02:00,53.0,53.0,-100.00,NNE,20,5.0,10.0,100,0.02,,,0.12,13.000000,,2013-09-16 13:02:00,
2013-09-16 09:42:00,53.0,53.0,-100.00,NNE,21,4.0,7.0,100,0.00,,,0.12,20.000000,,2013-09-16 13:42:00,
2013-09-16 09:52:00,53.0,53.0,-100.00,NNE,21,4.0,7.0,100,0.00,,,0.12,20.000000,,2013-09-16 13:52:00,
2013-09-16 10:02:00,53.0,53.0,-100.00,NNE,21,4.0,7.0,100,0.00,,,0.12,20.000000,,2013-09-16 14:02:00,
2013-09-16 10:42:00,54.0,54.0,-100.00,NNE,22,4.0,7.0,100,0.01,,,0.13,64.000000,,2013-09-16 14:42:00,
2013-09-16 10:52:00,54.0,54.0,-100.00,NNE,22,4.0,7.0,100,0.01,,,0.13,64.000000,,2013-09-16 14:52:00,
2013-09-16 11:02:00,54.0,54.0,-100.00,NNE,22,4.0,7.0,100,0.01,,,0.13,64.000000,,2013-09-16 15:02:00,
2013-09-16 11:43:00,58.0,58.0,-100.00,North,6,5.0,9.0,100,0.00,,,0.13,373.000000,,2013-09-16 15:43:00,
2013-09-16 11:53:00,58.0,58.0,-100.00,North,6,5.0,9.0,100,0.00,,,0.13,373.000000,,2013-09-16 15:53:00,
2013-09-16 12:03:00,58.0,58.0,-100.00,North,6,5.0,9.0,100,0.00,,,0.13,373.000000,,2013-09-16 16:03:00,
2013-09-16 12:43:00,61.0,60.0,-100.00,NNE,13,6.0,12.0,96,0.00,,,0.13,459.000000,,2013-09-16 16:43:00,
2013-09-16 12:52:00,61.0,60.0,-100.00,NNE,13,6.0,12.0,96,0.00,,,0.13,459.000000,,2013-09-16 16:52:00,
2013-09-16 13:03:00,61.0,60.0,-100.00,NNE,13,6.0,12.0,96,0.00,,,0.13,459.000000,,2013-09-16 17:03:00,
2013-09-16 13:43:00,63.0,56.0,-100.00,NNE,22,6.0,11.0,79,0.00,,,0.13,553.000000,,2013-09-16 17:43:00,
2013-09-16 13:53:00,63.0,56.0,-100.00,NNE,22,6.0,11.0,79,0.00,,,0.13,553.000000,,2013-09-16 17:53:00,
2013-09-16 14:02:00,63.0,56.0,-100.00,NNE,22,6.0,11.0,79,0.00,,,0.13,553.000000,,2013-09-16 18:02:00,
2013-09-16 14:42:00,64.0,54.0,-100.00,NNE,23,7.0,12.0,69,0.00,,,0.13,401.000000,,2013-09-16 18:42:00,
2013-09-16 14:52:00,64.0,54.0,-100.00,NNE,23,7.0,12.0,69,0.00,,,0.13,401.000000,,2013-09-16 18:52:00,
2013-09-16 15:01:00,64.0,54.0,-100.00,NNE,23,7.0,12.0,69,0.00,,,0.13,401.000000,,2013-09-16 19:01:00,
2013-09-16 15:42:00,63.0,51.0,-100.00,NNE,27,7.0,12.0,66,0.00,,,0.13,365.000000,,2013-09-16 19:42:00,
2013-09-16 15:53:00,63.0,51.0,-100.00,NNE,27,7.0,12.0,66,0.00,,,0.13,365.000000,,2013-09-16 19:53:00,
2013-09-16 16:03:00,63.0,51.0,-100.00,NNE,27,7.0,12.0,66,0.00,,,0.13,365.000000,,2013-09-16 20:03:00,
2013-09-16 16:43:00,65.0,54.0,-100.00,NNE,23,7.0,14.0,67,0.00,,,0.13,386.000000,,2013-09-16 20:43:00,
2013-09-16 16:52:00,65.0,54.0,-100.00,NNE,23,7.0,14.0,67,0.00,,,0.13,386.000000,,2013-09-16 20:52:00,
2013-09-16 17:03:00,65.0,54.0,-100.00,NNE,23,7.0,14.0,67,0.00,,,0.13,386.000000,,2013-09-16 21:03:00,
2013-09-16 17:44:00,64.0,51.0,-100.00,NNE,33,7.0,14.0,63,0.00,,,0.13,376.000000,,2013-09-16 21:44:00,
2013-09-16 17:56:00,64.0,51.0,-100.00,NNE,33,7.0,14.0,63,0.00,,,0.13,376.000000,,2013-09-16 21:56:00,
2013-09-16 18:04:00,64.0,51.0,-100.00,NNE,33,7.0,14.0,63,0.00,,,0.13,376.000000,,2013-09-16 22:04:00,
2013-09-16 18:43:00,60.0,49.0,-100.00,NNE,29,7.0,11.0,67,0.00,,,0.13,80.000000,,2013-09-16 22:43:00,
2013-09-16 18:54:00,60.0,49.0,-100.00,NNE,29,7.0,11.0,67,0.00,,,0.13,80.000000,,2013-09-16 22:54:00,
2013-09-16 19:02:00,60.0,49.0,-100.00,NNE,29,7.0,11.0,67,0.00,,,0.13,80.000000,,2013-09-16 23:02:00,
2013-09-16 19:43:00,58.0,47.0,-100.00,NE,40,6.0,13.0,68,0.00,,,0.13,20.000000,,2013-09-16 23:43:00,
2013-09-16 19:53:00,58.0,47.0,-100.00,NE,40,6.0,13.0,68,0.00,,,0.13,20.000000,,2013-09-16 23:53:00,
2013-09-16 20:02:00,58.0,47.0,-100.00,NE,40,6.0,13.0,68,0.00,,,0.13,20.000000,,2013-09-17 00:02:00,
2013-09-16 20:42:00,57.0,49.0,-100.00,NE,45,8.0,14.0,75,0.00,,,0.13,1.000000,,2013-09-17 00:42:00,
2013-09-16 20:52:00,57.0,49.0,-100.00,NE,45,8.0,14.0,75,0.00,,,0.13,1.000000,,2013-09-17 00:52:00,
2013-09-16 21:02:00,57.0,49.0,-100.00,NE,45,8.0,14.0,75,0.00,,,0.13,1.000000,,2013-09-17 01:02:00,
2013-09-16 21:42:00,54.0,48.0,-100.00,NNE,24,8.0,17.0,80,0.00,,,0.13,0.000000,,2013-09-17 01:42:00,
2013-09-16 21:52:00,54.0,48.0,-100.00,NNE,24,8.0,17.0,80,0.00,,,0.13,0.000000,,2013-09-17 01:52:00,
2013-09-16 22:03:00,54.0,48.0,-100.00,NNE,24,8.0,17.0,80,0.00,,,0.13,0.000000,,2013-09-17 02:03:00,
2013-09-16 22:42:00,52.0,48.0,-100.00,NNE,31,10.0,20.0,86,0.00,,,0.13,0.000000,,2013-09-17 02:42:00,
2013-09-16 22:53:00,52.0,48.0,-100.00,NNE,31,10.0,20.0,86,0.00,,,0.13,0.000000,,2013-09-17 02:53:00,
2013-09-16 23:02:00,52.0,48.0,-100.00,NNE,31,10.0,20.0,86,0.00,,,0.13,0.000000,,2013-09-17 03:02:00,
2013-09-16 23:45:00,49.0,46.0,-100.00,NE,36,12.0,23.0,88,0.00,,,0.13,0.000000,,2013-09-17 03:45:00,
2013-09-16 23:54:00,49.0,46.0,-100.00,NE,36,12.0,23.0,88,0.00,,,0.13,0.000000,,2013-09-17 03:54:00,